Probability
0 0 0 0 0 0 0 0 0 0 0 0 1 2 2 2 2 2 1 0 0 0 0 0 0 0 0 0 0 0 0 0 0 0 0 0 0 0 0 0 0 0 0
0 0 0 0 0 1 1 1 0 0 0 0 0 1 1 1 1 1 1 0 0 0 0 0 0 0 0 0 0 0 0 0 0 0 0 0 0 0 0 0 0 0 0
0 0 0 0 0 1 2 2 1 0 0 0 0 0 0 0 0 1 0 0 0 0 0 0 0 0 0 0 0 0 0 0 0 0 0 0 0 0 0 0 0 0 0
0 0 0 0 0 1 2 3 3 1 0 0 0 0 0 0 0 1 0 0 0 0 0 0 0 0 0 0 0 0 0 0 0 0 0 0 0 0 0 0 0 0 0
0 0 0 0 0 0 1 3 4 2 0 0 0 0 0 0 0 0 0 0 0 0 0 0 0 0 0 0 0 0 0 0 0 0 0 0 0 0 0 0 0 0 0
0 0 0 0 0 0 1 2 3 1 0 0 0 0 0 0 0 0 0 0 0 0 0 0 0 0 0 0 0 0 0 0 0 0 0 0 0 0 0 0 0 0 0
0 0 0 0 0 0 0 1 1 0 0 0 0 0 1 1 1 1 1 1 0 0 0 0 0 0 0 0 0 0 0 0 0 0 0 0 0 0 0 0 0 0 0
0 0 0 0 0 0 0 0 0 0 0 0 0 0 1 2 3 2 2 2 1 0 0 0 0 0 0 0 0 0 0 0 0 0 0 0 0 0 0 0 0 0 0
0 0 0 0 0 0 0 0 0 0 0 0 0 0 1 2 3 3 3 2 1 0 0 0 0 0 0 0 0 0 0 0 0 0 0 0 0 0 0 0 0 0 0
0 0 0 0 0 0 0 0 0 0 0 0 0 0 0 1 2 3 3 1 1 1 0 0 0 0 0 0 0 0 0 0 0 0 0 0 0 0 0 0 0 0 0
0 0 0 0 0 0 0 0 0 0 0 0 0 0 0 0 1 2 2 2 2 2 1 0 0 0 0 0 0 0 0 0 0 0 0 0 0 0 0 0 0 0 0
0 0 0 0 0 0 0 0 0 0 0 0 0 0 0 0 0 1 2 3 3 3 2 1 1 1 0 0 0 0 0 0 0 0 0 0 0 0 0 0 0 0 0
0 0 0 0 0 0 0 0 0 0 0 0 0 0 0 0 0 0 2 3 4 3 4 3 3 2 1 0 0 0 0 0 0 0 0 0 0 0 0 0 0 0 0
0 0 0 0 0 0 0 0 0 0 0 0 0 0 0 0 0 0 1 3 3 3 4 4 3 3 2 2 1 0 0 0 0 0 0 0 0 0 0 0 0 0 0
0 0 0 0 0 0 0 0 0 0 0 0 0 0 0 1 1 1 1 3 3 3 3 2 2 2 3 3 2 0 0 0 0 0 0 0 0 0 0 0 0 0 0
0 0 0 0 0 0 0 0 0 0 0 0 0 0 0 1 1 1 1 2 2 1 1 1 0 1 2 2 1 0 0 0 0 0 0 0 0 0 0 0 0 0 0
0 0 0 0 0 0 0 0 0 0 0 0 0 0 0 0 0 0 1 1 1 0 0 0 0 0 0 0 0 0 0 0 0 0 0 0 0 0 0 0 0 0 0
0 0 0 0 0 0 0 0 0 0 0 0 0 0 0 0 0 0 0 0 0 0 0 0 0 0 0 0 0 0 0 0 0 0 0 0 0 0 0 0 0 0 0
0 0 0 0 0 0 0 0 0 0 0 0 0 0 0 0 0 0 0 0 0 0 0 0 0 0 0 0 0 0 0 0 0 0 0 0 0 0 0 0 0 0 0
0 0 0 0 0 0 0 0 0 0 0 0 0 0 0 0 0 0 0 0 0 0 0 0 0 0 0 0 0 0 0 0 0 0 0 0 0 0 0 0 0 0 0
0 0 0 0 0 0 0 0 0 0 0 0 0 0 0 0 0 0 0 0 0 0 0 0 0 0 0 0 0 0 0 0 0 0 0 0 0 0 0 0 0 0 0
0 0 0 0 0 0 0 0 0 0 0 0 0 0 0 0 0 0 0 0 0 0 0 0 0 0 0 0 0 0 0 0 0 0 0 0 0 0 0 0 0 0 0
0 0 0 0 0 0 0 0 0 0 0 0 0 0 0 0 0 0 0 0 0 0 0 0 0 0 0 0 0 0 0 0 0 0 0 0 0 0 0 0 0 0 0
0 0 0 0 0 0 0 0 0 0 0 0 0 0 0 0 0 0 0 0 0 0 0 0 0 0 0 0 0 0 0 0 0 0 0 0 0 0 0 0 0 0 0
0 0 0 0 0 0 0 0 0 0 0 0 0 0 0 0 0 0 0 0 0 0 0 0 0 0 0 0 0 0 0 0 0 0 0 0 0 0 0 0 0 0 0
0 0 0 0 0 0 0 0 0 0 0 0 0 0 0 0 0 0 0 0 0 0 0 0 0 0 0 0 0 0 0 0 0 0 0 0 0 0 0 0 0 0 0
Wind_Speed
11 8 8 8 9 10 11 12 13 13 11 9 9 9 9 8 8 8 9 10 10 10 10 8 8 7 7 8 8 6 6 5 4 4 4 5 5 4 3 3 2 2 2
10 8 8 7 8 10 10 11 12 12 13 11 9 7 7 7 8 7 9 11 11 11 9 10 8 8 7 8 8 7 5 4 4 4 4 4 3 3 2 2 1 1 1
10 8 7 7 7 8 9 8 11 11 12 12 9 6 6 5 7 9 8 10 11 11 10 10 9 8 8 7 8 8 8 6 6 6 5 4 3 2 2 2 1 1 1
8 7 6 6 6 7 6 7 8 9 10 11 11 12 10 10 10 8 7 8 10 10 10 10 10 9 7 8 8 8 7 8 6 5 6 6 4 4 3 2 2 1 1
7 7 6 6 6 5 5 5 6 7 8 10 12 12 11 9 7 7 8 8 8 9 9 9 9 8 7 8 8 7 8 7 7 5 4 6 6 7 6 5 3 2 1
4 5 4 4 4 4 3 3 4 5 6 8 9 11 12 11 9 9 8 7 6 6 8 8 8 8 7 8 8 7 8 7 8 6 5 5 5 5 6 6 5 4 2
3 3 3 3 4 4 3 2 2 3 3 5 7 8 10 10 10 9 8 7 6 5 7 7 7 7 7 7 7 6 7 7 8 7 6 6 6 5 5 6 5 5 4
4 4 4 4 4 4 3 3 2 2 1 2 3 4 6 5 5 7 6 6 5 5 5 6 6 6 6 6 6 6 6 6 7 7 7 5 5 5 5 5 5 5 5
5 6 6 5 5 5 5 4 3 3 2 2 1 1 3 4 4 5 5 4 4 3 4 5 5 5 5 5 5 4 5 5 5 5 6 5 4 4 4 4 4 5 6
6 6 6 6 5 5 5 5 5 4 3 3 2 1 1 1 3 3 3 3 3 3 4 4 4 4 4 4 4 4 4 4 3 3 4 4 3 3 3 3 4 4 5
5 5 5 5 5 5 5 5 5 5 5 4 3 2 1 1 1 1 2 3 2 3 3 4 4 4 4 4 4 4 3 4 3 3 3 3 3 3 2 2 3 3 3
5 5 5 5 5 5 5 5 4 5 5 4 3 3 2 1 1 1 1 2 2 2 3 3 3 3 3 3 4 4 3 3 3 3 2 2 2 2 2 2 2 2 2
5 5 5 5 5 5 5 5 4 4 4 3 3 3 2 2 1 1 1 1 1 1 2 2 2 2 2 2 3 3 3 3 3 2 3 2 2 2 1 1 1 1 1
4 5 5 5 5 5 4 5 4 4 3 3 3 3 3 2 1 1 1 1 0 1 1 1 2 2 2 2 2 2 2 2 2 1 1 1 1 2 1 1 1 0 0
5 5 5 5 5 5 4 4 4 4 3 2 2 2 2 2 2 1 1 1 1 1 1 1 1 2 2 2 3 2 3 3 2 2 1 1 1 1 1 0 0 0 1
6 6 6 6 5 5 5 4 4 4 3 2 2 2 2 1 1 1 1 1 1 1 1 1 1 1 1 4 5 3 3 2 3 2 2 2 2 3 3 3 2 1 1
7 7 7 6 5 5 5 5 4 3 3 2 2 2 1 1 1 1 1 1 1 1 2 1 1 1 2 4 5 5 3 3 2 2 2 2 2 2 3 5 5 5 4
8 8 7 7 6 5 5 4 4 3 3 3 3 2 2 1 0 0 1 0 0 1 1 1 1 2 2 4 5 5 4 3 3 3 3 3 2 2 3 3 3 3 4
8 8 7 6 6 5 4 4 3 3 3 3 3 3 2 1 1 1 1 1 1 1 1 1 1 2 2 5 5 5 3 3 3 3 2 2 2 4 4 3 3 3 3
7 6 5 5 5 5 4 3 4 4 4 4 4 3 2 2 2 2 1 1 1 1 1 1 1 1 2 4 5 5 3 4 3 3 2 3 3 4 4 2 2 2 1
7 6 5 5 5 4 3 4 5 5 4 3 3 3 2 2 2 2 1 1 1 1 1 2 2 2 2 3 4 4 2 3 3 3 2 2 4 4 3 2 2 2 2
7 6 5 5 4 3 3 5 5 4 3 3 3 3 2 2 1 1 1 2 2 2 2 2 2 1 1 2 3 4 3 3 3 3 2 3 5 4 4 3 4 5 3
6 5 5 6 5 3 3 5 5 3 3 3 3 2 2 1 1 2 2 2 2 2 2 2 2 1 1 2 4 4 4 4 3 3 4 5 5 5 4 5 5 3 2
5 4 4 5 5 4 4 4 4 3 2 3 3 2 2 2 2 2 2 3 3 3 3 3 2 2 1 1 2 2 3 4 4 4 5 6 6 5 4 4 3 2 2
5 4 4 5 6 5 5 4 3 2 3 3 3 2 2 2 2 2 2 3 3 3 4 3 3 3 3 3 3 2 2 2 3 3 2 2 2 2 2 2 2 2 2
5 4 5 5 6 5 5 4 3 3 3 3 3 2 2 2 2 2 1 1 2 3 4 4 3 2 3 4 5 4 4 5 6 4 3 2 2 2 1 1 1 1 1
Wind_Direction
257 253 244 236 230 224 221 220 218 213 207 204 206 210 215 215 215 218 219 218 216 213 215 218 219 215 221 225 224 226 229 232 231 251 267 264 255 251 253 252 256 255 256
260 256 249 241 234 231 226 225 223 217 210 209 207 210 212 216 217 216 218 220 217 216 215 218 215 212 218 223 221 218 224 225 215 232 258 267 248 213 229 236 250 260 241
262 264 258 250 243 239 235 231 228 223 217 212 207 203 207 212 213 216 217 217 216 215 214 217 217 214 215 219 218 215 222 227 221 224 237 252 257 285 205 218 229 224 212
258 262 261 259 253 248 242 236 232 227 220 211 209 208 209 214 217 215 214 213 213 214 214 216 217 217 216 220 218 216 220 226 229 223 232 245 261 262 263 204 202 222 251
262 263 265 268 268 264 250 243 236 230 223 215 213 214 219 222 220 213 213 213 210 212 213 213 214 216 217 221 220 219 220 222 229 226 224 235 245 247 254 262 254 238 233
284 284 293 298 298 298 281 258 243 235 226 218 216 216 219 219 216 214 212 212 209 208 212 211 213 215 217 220 221 220 221 222 226 228 224 223 227 230 237 252 262 263 261
329 334 339 342 343 339 329 311 277 257 234 218 218 221 222 221 221 220 218 215 212 211 211 209 213 215 217 218 218 216 219 222 224 225 225 226 233 238 237 245 255 262 263
5 10 5 3 1 355 349 348 335 316 293 233 222 220 224 225 225 224 222 220 217 216 210 206 210 214 215 215 213 212 216 219 220 224 225 227 231 233 233 237 245 257 256
11 13 11 10 7 6 4 359 358 352 343 325 288 229 225 225 227 227 223 223 221 214 209 204 205 208 207 208 205 208 214 217 220 224 227 229 233 235 237 238 237 244 255
11 12 9 8 8 3 4 12 11 7 0 357 346 333 285 249 235 229 225 221 220 212 204 204 204 205 204 203 201 201 207 210 219 224 226 230 233 235 237 237 240 243 252
5 3 1 2 2 5 8 12 10 10 10 5 358 359 348 311 265 240 237 228 220 211 206 203 201 201 201 199 196 198 194 200 210 214 217 229 236 239 242 242 241 243 245
347 350 354 358 1 1 2 2 4 6 4 358 354 355 357 350 329 280 262 238 219 214 210 200 196 197 196 195 192 193 194 195 199 210 214 230 238 242 251 246 245 252 256
341 345 349 351 351 350 349 349 350 355 358 357 357 357 353 353 342 328 327 296 217 205 194 179 176 178 180 178 179 184 189 189 190 194 203 216 214 234 249 256 261 276 286
327 336 339 340 339 339 340 339 340 344 353 355 357 355 347 341 336 348 15 31 100 152 159 162 168 168 164 162 154 156 151 152 143 144 168 206 220 222 232 246 288 319 323
323 326 328 329 330 331 329 328 328 331 337 343 341 338 343 351 358 5 9 32 62 93 127 146 162 164 159 149 141 142 147 149 137 120 101 87 73 60 54 51 295 271 238
316 320 322 323 321 320 316 312 311 314 314 314 316 324 335 358 19 13 2 31 66 83 100 123 145 139 127 124 126 131 141 146 145 135 109 90 86 82 80 71 61 47 222
309 311 311 310 308 308 303 299 299 301 298 300 306 311 315 329 355 29 41 40 55 82 89 96 108 114 121 123 123 118 123 126 119 111 106 88 68 73 78 72 67 52 45
301 301 304 304 306 305 305 306 304 296 289 292 297 303 298 293 320 76 99 60 84 120 114 106 102 103 114 122 121 116 110 108 105 105 113 116 100 81 96 86 69 50 37
293 293 297 300 302 302 307 305 297 292 289 290 291 294 284 265 244 222 206 198 163 141 110 106 106 109 118 128 130 123 115 112 105 98 101 118 116 107 103 102 97 77 53
299 298 300 300 296 303 307 294 287 284 281 287 289 286 274 255 243 232 220 203 162 159 127 111 108 118 128 134 135 130 129 128 121 108 103 106 114 112 105 113 123 111 67
298 296 290 287 289 296 288 280 281 278 288 298 289 276 266 255 242 228 199 174 157 143 136 121 105 107 121 137 134 136 138 143 138 132 123 108 107 102 98 97 104 113 96
297 296 295 296 303 297 278 279 280 293 302 292 279 271 263 254 229 205 187 170 160 154 149 133 114 99 101 125 137 136 131 138 138 139 130 120 113 102 93 86 93 94 90
298 302 297 298 301 295 275 274 289 305 300 287 271 266 259 236 212 204 189 174 173 176 173 165 158 136 120 135 133 130 125 129 121 122 125 121 113 97 83 80 83 81 83
299 300 295 292 297 302 293 283 288 285 271 263 261 253 240 228 213 210 199 192 190 188 182 179 174 164 159 158 143 135 126 122 114 113 115 112 105 93 86 82 72 59 59
302 297 287 287 292 299 294 292 280 263 259 260 254 249 239 226 216 214 211 214 216 203 194 190 182 179 185 176 165 165 154 145 139 127 119 121 119 105 94 82 67 60 59
297 294 289 288 292 296 292 286 268 244 237 245 242 237 236 226 212 201 192 187 197 188 190 187 182 182 171 161 163 159 147 140 141 134 144 149 147 141 134 121 97 70 57